Погода в Бониту

Бразилия     1°23′25″S   47°18′02″W
темп.,
°C
ветер,
м/с
пор.,
м/с
влажн.,
%
обл.,
%
осадки,
мм/ч
давл.,
гПа
погр.,
м
7 марта, вс
вс700:00+23всв1295100 0.0 101136
03:00+23св129799 0.0 101025
06:00+22в019797 1.2 101023
09:00+26всв258989 5.0 1013445
12:00+27всв698699 5.2 1012884
15:00+25всв377998 5.2 1010510
18:00+24ссв2589100 0.0 1009411
21:00+23св1296100 0.0 101152
8 марта, пн
пн800:00+23ссв1298100 0.0 101243
03:00+22ссв019896 0.0 101023
06:00+22с019872 2.1 101024
09:00+27в138678 2.6 1012461
12:00+28св4686100 6.0 1011795
15:00+26св4791100 15.5 1008578
18:00+24св3997100 8.6 1008397
21:00+23св3998100 13.3 1011409
9 марта, вт
вт900:00+23всв2898100 1.6 1010324
03:00+23в129999 5.8 100896
06:00+23св279898 7.2 1009263
09:00+24всв269697 10.2 1011440
12:00+27всв358796 2.9 1010806
15:00+25ссв369598 10.3 1008414
18:00+23с3897100 4.7 1008365
21:00+23ссв2898100 5.3 1010317
10 марта, ср
ср1000:00+23св1198100 0.4 101140
03:00+22св019899 2.7 100923
06:00+22в119866 0.0 100923
09:00+26вюв238955 0.0 1011405
12:00+28св358352 2.4 1010847
15:00+28св368459 5.6 1008859
18:00+25св3794100 1.8 1008406
21:00+23св2497100 1.8 1010146
11 марта, чт
чт1100:00+23св1398100 0.1 1011131
03:00+22всв239899 0.3 100996
06:00+22всв129884 0.0 101068
09:00+26всв258791 0.1 1012597
12:00+29всв357998 2.1 1011937
15:00+28св358199 4.8 1008945
18:00+25св2693100 1.5 1008340
21:00+23всв2597100 1.8 1010152